Weather History for Needles, CA

Change the Weather History Date:

Thursday, June 20, 2013

  Actual Average Record
Temperature  
Mean Temperature 90 °F -  
Max Temperature 105 °F 105 °F 118 °F (1961)
Min Temperature 77 °F 77 °F 65 °F (1975)
Cooling Degree Days 26    
Growing Degree Days 40 (Base 50)    
Moisture  
Dew Point 12 °F    
Average Humidity 5    
Maximum Humidity 9    
Minimum Humidity 4    
Precipitation  
Precipitation 0.00 in - - ()
Sea Level Pressure  
Sea Level Pressure 29.59 in    
Wind  
Wind Speed 6 mph (SW)    
Max Wind Speed 16 mph    
Max Gust Speed 25 mph    
Visibility 10 miles    
Events      
Averages and records for this station are not official NWS values.
T = Trace of Precipitation, MM = Missing Value Source: NWS Daily Summary

Daily Weather History Graph

Daily Weather History Graph

Search for Another Location

Airport:

Trip Planner

Search our weather history database for the weather conditions in past years. The results will help you decide how hot, cold, wet, or windy it might be!

Date:

Astronomy

Jun. 20, 2013 Rise Set
Actual Time 5:25 AM PDT 7:54 PM PDT
Civil Twilight 4:55 AM PDT 8:24 PM PDT
Nautical Twilight 4:19 AM PDT 9:01 PM PDT
Astronomical Twilight 3:38 AM PDT 9:41 PM PDT
Moon 5:05 PM PDT (6/20) 2:49 AM PDT (6/20)
Length of Visible Light 15h 28m
Length of Day
14h 29m
Waxing Gibbous, 89% of the Moon is Illuminated
Jun 20
Waxing Gibbous
Jun 23
Full
Jun 29
Last Quarter
Jul 8
New
Jul 15
First Quarter

Hourly Weather History & Observations

Time (PDT) Temp. Dew Point Humidity Pressure Visibility Wind Dir Wind Speed Gust Speed Precip Events Conditions
12:56 AM 90.0 °F 1.0 °F 4% 29.55 in 10.0 mi Variable 5.8 mph - N/A   Clear
1:56 AM 86.0 °F 1.0 °F 4% 29.55 in 10.0 mi Calm Calm - N/A   Clear
2:56 AM 81.0 °F 9.0 °F 6% 29.55 in 10.0 mi SSW 6.9 mph - N/A   Clear
3:56 AM 79.0 °F 3.9 °F 6% 29.56 in 10.0 mi SW 8.1 mph - N/A   Clear
4:56 AM 79.0 °F 3.9 °F 6% 29.57 in 10.0 mi WSW 3.5 mph - N/A   Clear
5:56 AM 77.0 °F 7.0 °F 7% 29.60 in 10.0 mi NNW 3.5 mph - N/A   Clear
6:56 AM 82.9 °F 7.0 °F 6% 29.61 in 10.0 mi Calm Calm - N/A   Clear
7:56 AM 87.1 °F 10.0 °F 6% 29.63 in 10.0 mi Calm Calm - N/A   Clear
8:56 AM 88.0 °F 23.0 °F 9% 29.64 in 10.0 mi NE 4.6 mph - N/A   Clear
9:56 AM 93.0 °F 15.1 °F 6% 29.64 in 10.0 mi SE 5.8 mph - N/A   Clear
10:56 AM 97.0 °F 21.0 °F 6% 29.64 in 10.0 mi SSE 9.2 mph - N/A   Clear
11:56 AM 99.0 °F 18.0 °F 5% 29.63 in 10.0 mi SSW 6.9 mph 18.4 mph N/A   Clear
12:56 PM 102.0 °F 15.1 °F 4% 29.61 in 10.0 mi South 16.1 mph 25.3 mph N/A   Clear
1:56 PM 102.0 °F 15.1 °F 4% 29.60 in 10.0 mi SSW 6.9 mph 21.9 mph N/A   Clear
2:56 PM 102.9 °F 15.1 °F 4% 29.58 in 10.0 mi SSW 11.5 mph - N/A   Clear
3:23 PM 102.2 °F 12.2 °F 4% 29.68 in 10.0 mi Variable 6.9 mph - N/A   Clear
3:56 PM 104.0 °F 12.0 °F 4% 29.57 in 10.0 mi SW 13.8 mph 19.6 mph N/A   Clear
4:56 PM 102.9 °F 9.0 °F 4% 29.57 in 10.0 mi WSW 11.5 mph 21.9 mph N/A   Clear
5:56 PM 102.0 °F 12.0 °F 4% 29.57 in 10.0 mi WSW 16.1 mph 21.9 mph N/A   Clear
6:56 PM 100.9 °F 12.0 °F 4% 29.56 in 10.0 mi West 13.8 mph - N/A   Clear
7:56 PM 98.1 °F 15.1 °F 5% 29.56 in 10.0 mi WSW 9.2 mph - N/A   Clear
8:56 PM 93.0 °F 16.0 °F 6% 29.57 in 10.0 mi WSW 8.1 mph - N/A   Clear
9:56 PM 90.0 °F 16.0 °F 7% 29.58 in 10.0 mi WSW 9.2 mph - N/A   Clear
10:56 PM 89.1 °F 17.1 °F 7% 29.59 in 10.0 mi WSW 9.2 mph - N/A   Clear
11:56 PM 84.9 °F 14.0 °F 7% 29.59 in 10.0 mi SSE 3.5 mph - N/A   Clear